Regional Weather Roundup
Issued by NWS Spokane, WA

Home | Current Version | Previous Version | Text Only | Print | Product List | Glossary On
Versions: 1 2 3 4 5 6 7 8 9 10 11 12 13 14 15 16 17 18 19 20 21 22 23 24 25 26 27 28 29 30 31 32 33 34 35 36 37 38 39 40 41 42 43 44 45 46 47 48 49 50
000
NZUS01 KOTX 240710
RWROTX
EASTERN WASHINGTON/NORTHERN IDAHO ROUNDUP
NATIONAL WEATHER SERVICE, SPOKANE WA
1200 AM PDT SUN MAY 24 2015

Note: "fair" indicated few or no clouds below 12,000 feet with no
significant weather and/or obstructions to visibility.

...NORTHEAST WASHINGTON AND NORTHERN IDAHO PANHANDLE...

CITY           SKY/WX    TMP DP  RH WIND       PRES   REMARKS
SPOKANE INTL   PTCLDY    64  52  64 S16       30.00R
SPOKANE DOWNTO CLEAR     67  52  58 CALM      30.00R
COEUR D ALENE  PTCLDY    63  48  59 S6        30.01R
DEER PARK      PTCLDY    62  48  60 SE5       30.00R
SANDPOINT      MOCLDY    64  37  36 NE5       30.01R
BONNERS FERRY  FAIR      64  37  36 CALM      30.02S

...SOUTHEAST WASHINGTON AND SOUTHERN IDAHO PANHANDLE...

CITY           SKY/WX    TMP DP  RH WIND       PRES   REMARKS
WALLA WALLA    PTCLDY    63  50  62 S9        29.99S
PULLMAN/MOSCOW MOCLDY    56  49  77 CALM      30.03R
LEWISTON       LGT RAIN  61  55  81 E7        29.99R
LOWELL           N/A     55  52  89 CALM      30.03R

...COLUMBIA BASIN...

CITY           SKY/WX    TMP DP  RH WIND       PRES   REMARKS
EPHRATA        PTCLDY    70  46  42 NW10      29.93S
MOSES LAKE     MOCLDY    67  53  61 CALM      29.93S
TRI CITIES     MOCLDY    65  50  58 SW13      29.96R
HERMISTON      PTCLDY    61  48  62 SW12G18   30.00R
PENDLETON      PTCLDY    53  48  83 NW5       30.00S

...EAST SLOPES CASCADES...

CITY           SKY/WX    TMP DP  RH WIND       PRES   REMARKS
THE DALLES     CLEAR     60  49  66 NW20      30.05S
YAKIMA         CLEAR     66  46  48 NW15G29   29.99S
ELLENSBURG     CLEAR     57  47  69 NW23G32   30.01F
WENATCHEE      CLEAR     66  47  50 NW13      29.98R
OMAK           PTCLDY    65  42  43 NW9       29.96F

...SOUTHERN BRITISH COLUMBIA...

CITY           SKY/WX    TMP DP  RH WIND       PRES   REMARKS
PENTICTON      PTCLDY    63  45  51 N5        29.99R

...WESTERN MONTANA...

CITY           SKY/WX    TMP DP  RH WIND       PRES   REMARKS
MISSOULA       CLOUDY    52  43  71 CALM      30.10S

...NEIGHBORING CITIES...

CITY           SKY/WX    TMP DP  RH WIND       PRES   REMARKS
SEATTLE        CLOUDY    56  50  80 S7        30.18S
CALGARY        CLEAR     59  28  31 VRB2      30.11S



USA.gov is the U.S. government's official web portal to all federal, state and local government web resources and services.